AirNav   Pilot Hours Calculator
 
 549 users online  

X44 Miami Seaplane Base
Miami, Florida, USA

GOING TO MIAMI?


FAA INFORMATION EFFECTIVE 30 JANUARY 2020

Location

FAA Identifier: X44
Lat/Long: 25-46-42.0000N 080-10-13.0000W
25-46.700000N 080-10.216667W
25.7783333,-80.1702778
(estimated)
Elevation: 6 ft. / 2 m (estimated)
Variation: 03W (1985)
From city: 2 miles E of MIAMI, FL
Time zone: UTC -5 (UTC -4 during Daylight Saving Time)
Zip code: 33132

Seaplane Base Operations

Seaplane Base use: Open to the public, ALL TERMINAL FACILITIES ARE PRIVATE USE.
Activation date: 03/1948
Control tower: no
ARTCC: MIAMI CENTER
FSS: MIAMI FLIGHT SERVICE STATION
NOTAMs facility: MIA (NOTAM-D service available)
Attendance: DAYLIGHT HOURS
Wind indicator: yes, WIND SOCK LCTD APRXLY 500FT NW OF RAMP.
Segmented circle: no

Seaplane Base Communications

CTAF: 123.025
UNICOM: 122.8
WX ASOS at MIA (7 nm W): PHONE 305-870-0235
WX ASOS at OPF (10 nm NW): 125.9 (305-681-4063)
WX ASOS at HWO (14 nm N): PHONE 954-983-5904
WX ASOS at TMB (16 nm SW): PHONE 305-235-1332
WX ASOS at FLL (18 nm N): PHONE 954-359-7857

Nearby radio navigation aids

VOR radial/distance  VOR name  Freq  Var
VKZr336/1.8VIRGINIA KEY VOR/DME117.1004W
DHPr102/9.7DOLPHIN VORTAC113.9004W
FLLr187/17.7FORT LAUDERDALE VOR/DME114.4006W

Seaplane Base Services

Airframe service: NONE
Powerplant service: NONE
Bottled oxygen: NONE
Bulk oxygen: NONE

Runway Information

Helipad H1

Dimensions: 50 x 50 ft. / 15 x 15 m
Surface: concrete, in excellent condition
Latitude: 25-46.970000N
Longitude: 080-10.580667W
Elevation: 6.0 ft.
Traffic pattern: leftleft

Runway 12W/30W

Dimensions: 14000 x 200 ft. / 4267 x 61 m
Surface: water
RUNWAY 12W  RUNWAY 30W
Latitude: 25-46.984333N25-45.989500N
Longitude: 080-10.774000W080-08.469667W
Elevation: 0.0 ft.0.0 ft.
Traffic pattern: leftleft
Runway heading: 015 magnetic, 012 true033 magnetic, 030 true

Seaplane Base Ownership and Management from official FAA records

Ownership: Publicly-owned
Owner: CITY OF MIAMI
444 SW 2NE, MIAMI SEAPLANE BASE
MIAMI, FL 33130
Phone 305-416-1025
Manager: EMILIO T. GONZALEZ
CITY MANAGER, 444 SW 2ND AVE
MIAMI, FL 33130
Phone 305-416-1025

Seaplane Base Operational Statistics

Aircraft operations: avg 37/week *
100% air taxi
* for 12-month period ending 02 May 2018

Additional Remarks

MIAMI HELIPORT LCTD 400 FT NE.
500 FT RDO TWR 3/4MI W OF BASE.
NUMEROUS WATERCRAFT AND LARGE PASSENGER VESSELS IN AREA.
FOR CD CTC MIAMI APCH AT 305-869-5432.

Instrument Procedures

There are no published instrument procedures at X44.

Some nearby airports with instrument procedures:

KMIA - Miami International Airport (7 nm W)
KOPF - Miami-Opa Locka Executive Airport (10 nm NW)
KHWO - North Perry Airport (14 nm N)
KTMB - Miami Executive Airport (16 nm SW)
KFLL - Fort Lauderdale/Hollywood International Airport (18 nm N)
 
Loc | Ops | Rwys | IFR | FBO | Links
Com | Nav | Svcs | Stats | Notes

Reliance Aviation
AirBoss

 
Area around X44 (Miami Seaplane Base)
 
Road maps at: MapQuest Bing Google
 
Aerial photo
WARNING: Photo may not be current or correct
Aerial photo of X44 (Miami Seaplane Base)
Photo by Mike McKenney, Bill McKenney piloting
Photo taken 12-Feb-2009
looking SE (from a left base), altitude is 400 feet. Landing zone is in the channel.

Do you have a better or more recent aerial photo of Miami Seaplane Base that you would like to share? If so, please send us your photo.

 
Sectional chart

 
Airport distance calculator
Flying to Miami Seaplane Base? Find the distance to fly.

From to X44

Sunrise and sunset
Times for 20-Feb-2020
 Local
(UTC-5)
 Zulu
(UTC)
Morning civil twilight06:3011:30
Sunrise06:5311:53
Sunset18:1623:16
Evening civil twilight18:3923:39

Current date and time
Zulu (UTC)  20-Feb-2020 11:39:38
Local (UTC-5)  20-Feb-2020 06:39:38
 
METAR
KMIA 
8nm W 
201053Z 00000KT 10SM FEW018 FEW050 25/21 A3008 RMK AO2 SLP186 T02500206
KOPF 
10nm NW 
201121Z AUTO 00000KT 10SM FEW020 SCT026 23/21 A3009 RMK AO2 RAE04 P0000 T02280211
KHWO 
14nm N 
201053Z AUTO 02003KT 10SM FEW046 22/20 A3009 RMK AO2 SLP190 T02220200
KTMB 
16nm SW 
201120Z AUTO 00000KT 3SM BR CLR 21/20 A3008 RMK AO2 T02060200
KFLL 
17nm N 
201053Z 13005KT 10SM FEW023 24/21 A3007 RMK AO2 SLP183 T02390211
TAF
KMIA 
8nm W 
200859Z 2009/2112 11006KT P6SM SCT020 FM201500 15010KT P6SM FEW025 SCT045 FM210200 22006KT P6SM FEW020 FEW100 FM210900 27008KT P6SM FEW025 SCT100
KOPF 
10nm NW 
200859Z 2009/2106 VRB03KT P6SM SCT020 FM201800 15010KT P6SM FEW025 SCT045 FM210200 22007KT P6SM FEW020 SCT100
KTMB 
16nm SW 
200547Z 2006/2106 13005KT P6SM FEW025 FEW050 FM201500 14008KT P6SM FEW025 SCT050 FM210200 22005KT P6SM FEW020 SCT100
KFLL 
17nm N 
200859Z 2009/2112 12006KT P6SM SCT020 FM201500 15010KT P6SM FEW025 SCT045 FM210200 22007KT P6SM FEW020 SCT090 FM210900 27008KT P6SM FEW025 SCT100
NOTAMs
Click for the latest NOTAMs
NOTAMs are issued by the DoD/FAA and will open in a separate window not controlled by AirNav.

 

 
 

Would you like to see your business listed on this page?

 If your business provides an interesting product or service to pilots, flight crews, aircraft, or users of the Miami Seaplane Base, you should consider listing it here.  To start the listing process, click on the button below
 
Add a business
 

Other Pages about Miami Seaplane Base

www.miamiseaplanebase.com
 
Update a link
 
Copyright © AirNav, LLC. All rights reserved. Privacy Policy  Contact